Time,TemperatureF,DewpointF,PressureIn,WindDirection,WindDirectionDegrees,WindSpeedMPH,WindSpeedGustMPH,Humidity,HourlyPrecipIn,Conditions,Clouds,dailyrainin,SolarRadiationWatts/m^2,SoftwareType,DateUTC
2013-01-20 00:22:00,20.0,18.0,-100.00,NW,321,0.0,0.0,90,0.00,,,-99.99,0.000000,,2013-01-20 09:22:00,
2013-01-20 00:33:00,20.0,18.0,-100.00,NW,321,0.0,0.0,90,0.00,,,-99.99,0.000000,,2013-01-20 09:33:00,
2013-01-20 00:42:00,20.0,18.0,-100.00,NW,321,0.0,0.0,90,0.00,,,-99.99,0.000000,,2013-01-20 09:42:00,
2013-01-20 00:52:00,20.0,18.0,-100.00,NW,321,0.0,0.0,90,0.00,,,-99.99,0.000000,,2013-01-20 09:52:00,
2013-01-20 01:22:00,21.0,18.0,-100.00,East,87,0.0,0.0,89,0.00,,,0.00,0.000000,,2013-01-20 10:22:00,
2013-01-20 01:32:00,21.0,18.0,-100.00,East,87,0.0,0.0,89,0.00,,,0.00,0.000000,,2013-01-20 10:32:00,
2013-01-20 01:42:00,21.0,18.0,-100.00,East,87,0.0,0.0,89,0.00,,,0.00,0.000000,,2013-01-20 10:42:00,
2013-01-20 01:52:00,21.0,18.0,-100.00,East,87,0.0,0.0,89,0.00,,,0.00,0.000000,,2013-01-20 10:52:00,
2013-01-20 02:22:00,22.0,19.0,-100.00,NNW,347,0.0,0.0,89,0.00,,,0.00,0.000000,,2013-01-20 11:22:00,
2013-01-20 02:32:00,22.0,19.0,-100.00,NNW,347,0.0,0.0,89,0.00,,,0.00,0.000000,,2013-01-20 11:32:00,
2013-01-20 02:42:00,22.0,19.0,-100.00,NNW,347,0.0,0.0,89,0.00,,,0.00,0.000000,,2013-01-20 11:42:00,
2013-01-20 02:53:00,22.0,19.0,-100.00,NNW,347,0.0,0.0,89,0.00,,,0.00,0.000000,,2013-01-20 11:53:00,
2013-01-20 03:22:00,22.0,18.0,-100.00,NNE,16,0.0,0.0,85,0.00,,,0.00,0.000000,,2013-01-20 12:22:00,
2013-01-20 03:33:00,22.0,18.0,-100.00,NNE,16,0.0,0.0,85,0.00,,,0.00,0.000000,,2013-01-20 12:33:00,
2013-01-20 03:43:00,22.0,18.0,-100.00,NNE,16,0.0,0.0,85,0.00,,,0.00,0.000000,,2013-01-20 12:43:00,
2013-01-20 03:52:00,22.0,18.0,-100.00,NNE,16,0.0,0.0,85,0.00,,,0.00,0.000000,,2013-01-20 12:52:00,
2013-01-20 04:23:00,22.0,17.0,-100.00,North,1,0.0,0.0,82,0.00,,,0.00,0.000000,,2013-01-20 13:23:00,
2013-01-20 04:33:00,22.0,17.0,-100.00,North,1,0.0,0.0,82,0.00,,,0.00,0.000000,,2013-01-20 13:33:00,
2013-01-20 04:42:00,22.0,17.0,-100.00,North,1,0.0,0.0,82,0.00,,,0.00,0.000000,,2013-01-20 13:42:00,
2013-01-20 04:52:00,22.0,17.0,-100.00,North,1,0.0,0.0,82,0.00,,,0.00,0.000000,,2013-01-20 13:52:00,
2013-01-20 05:22:00,22.0,17.0,-100.00,NNW,332,0.0,0.0,81,0.00,,,0.00,0.000000,,2013-01-20 14:22:00,
2013-01-20 05:32:00,22.0,17.0,-100.00,NNW,332,0.0,0.0,81,0.00,,,0.00,0.000000,,2013-01-20 14:32:00,
2013-01-20 05:42:00,22.0,17.0,-100.00,NNW,332,0.0,0.0,81,0.00,,,0.00,0.000000,,2013-01-20 14:42:00,
2013-01-20 05:52:00,22.0,17.0,-100.00,NNW,332,0.0,0.0,81,0.00,,,0.00,0.000000,,2013-01-20 14:52:00,
2013-01-20 06:22:00,22.0,16.0,-100.00,North,357,0.0,0.0,78,0.00,,,0.00,0.000000,,2013-01-20 15:22:00,
2013-01-20 06:33:00,22.0,16.0,-100.00,North,357,0.0,0.0,78,0.00,,,0.00,0.000000,,2013-01-20 15:33:00,
2013-01-20 06:42:00,22.0,16.0,-100.00,North,357,0.0,0.0,78,0.00,,,0.00,0.000000,,2013-01-20 15:42:00,
2013-01-20 06:52:00,22.0,16.0,-100.00,North,357,0.0,0.0,78,0.00,,,0.00,0.000000,,2013-01-20 15:52:00,
2013-01-20 07:22:00,23.0,18.0,-100.00,North,10,0.0,0.0,82,0.00,,,0.00,0.000000,,2013-01-20 16:22:00,
2013-01-20 07:33:00,23.0,18.0,-100.00,North,10,0.0,0.0,82,0.00,,,0.00,0.000000,,2013-01-20 16:33:00,
2013-01-20 07:42:00,23.0,18.0,-100.00,North,10,0.0,0.0,82,0.00,,,0.00,0.000000,,2013-01-20 16:42:00,
2013-01-20 07:52:00,23.0,18.0,-100.00,North,10,0.0,0.0,82,0.00,,,0.00,0.000000,,2013-01-20 16:52:00,
2013-01-20 08:22:00,23.0,19.0,-100.00,NNW,344,0.0,0.0,85,0.00,,,0.00,0.000000,,2013-01-20 17:22:00,
2013-01-20 08:32:00,23.0,19.0,-100.00,NNW,344,0.0,0.0,85,0.00,,,0.00,0.000000,,2013-01-20 17:32:00,
2013-01-20 08:42:00,23.0,19.0,-100.00,NNW,344,0.0,0.0,85,0.00,,,0.00,0.000000,,2013-01-20 17:42:00,
2013-01-20 08:52:00,23.0,19.0,-100.00,NNW,344,0.0,0.0,85,0.00,,,0.00,0.000000,,2013-01-20 17:52:00,
2013-01-20 09:12:00,23.0,19.0,-100.00,North,7,0.0,0.0,85,-99.99,,,-99.99,,,2013-01-20 18:12:00,
2013-01-20 09:23:00,23.0,19.0,-100.00,North,7,0.0,0.0,85,0.00,,,-99.99,0.000000,,2013-01-20 18:23:00,
2013-01-20 09:33:00,23.0,19.0,-100.00,North,7,0.0,0.0,85,0.00,,,-99.99,0.000000,,2013-01-20 18:33:00,
2013-01-20 09:42:00,23.0,19.0,-100.00,North,7,0.0,0.0,85,0.00,,,-99.99,0.000000,,2013-01-20 18:42:00,
2013-01-20 09:52:00,23.0,19.0,-100.00,North,7,0.0,0.0,85,0.00,,,-99.99,0.000000,,2013-01-20 18:52:00,
2013-01-20 10:12:00,23.0,20.0,-100.00,ENE,58,0.0,0.0,87,0.00,,,0.00,0.000000,,2013-01-20 19:12:00,
2013-01-20 10:22:00,23.0,20.0,-100.00,ENE,58,0.0,0.0,87,0.00,,,0.00,0.000000,,2013-01-20 19:22:00,
2013-01-20 10:33:00,23.0,20.0,-100.00,ENE,58,0.0,0.0,87,0.00,,,0.00,0.000000,,2013-01-20 19:33:00,
2013-01-20 10:42:00,23.0,20.0,-100.00,ENE,58,0.0,0.0,87,0.00,,,0.00,0.000000,,2013-01-20 19:42:00,
2013-01-20 10:52:00,23.0,20.0,-100.00,ENE,58,0.0,0.0,87,0.00,,,0.00,0.000000,,2013-01-20 19:52:00,
2013-01-20 11:22:00,24.0,21.0,-100.00,NNE,20,0.0,0.0,88,0.00,,,0.00,0.000000,,2013-01-20 20:22:00,
2013-01-20 11:33:00,24.0,21.0,-100.00,NNE,20,0.0,0.0,88,0.00,,,0.00,0.000000,,2013-01-20 20:33:00,
2013-01-20 11:42:00,24.0,21.0,-100.00,NNE,20,0.0,0.0,88,0.00,,,0.00,0.000000,,2013-01-20 20:42:00,
2013-01-20 11:52:00,24.0,21.0,-100.00,NNE,20,0.0,0.0,88,0.00,,,0.00,0.000000,,2013-01-20 20:52:00,
2013-01-20 12:22:00,25.0,22.0,-100.00,North,350,0.0,0.0,87,0.00,,,0.00,4.000000,,2013-01-20 21:22:00,
2013-01-20 12:33:00,25.0,22.0,-100.00,North,350,0.0,0.0,87,0.00,,,0.00,4.000000,,2013-01-20 21:33:00,
2013-01-20 12:43:00,25.0,22.0,-100.00,North,350,0.0,0.0,87,0.00,,,0.00,4.000000,,2013-01-20 21:43:00,
2013-01-20 12:52:00,25.0,22.0,-100.00,North,350,0.0,0.0,87,0.00,,,0.00,4.000000,,2013-01-20 21:52:00,
2013-01-20 13:22:00,26.0,22.0,-100.00,NNE,32,0.0,0.0,84,0.00,,,0.00,4.000000,,2013-01-20 22:22:00,
2013-01-20 13:33:00,26.0,22.0,-100.00,NNE,32,0.0,0.0,84,0.00,,,0.00,4.000000,,2013-01-20 22:33:00,
2013-01-20 13:42:00,26.0,22.0,-100.00,NNE,32,0.0,0.0,84,0.00,,,0.00,4.000000,,2013-01-20 22:42:00,
2013-01-20 13:52:00,26.0,22.0,-100.00,NNE,32,0.0,0.0,84,0.00,,,0.00,4.000000,,2013-01-20 22:52:00,
2013-01-20 14:23:00,26.0,23.0,-100.00,ENE,60,0.0,0.0,87,0.00,,,0.00,4.000000,,2013-01-20 23:23:00,
2013-01-20 14:33:00,26.0,23.0,-100.00,ENE,60,0.0,0.0,87,0.00,,,0.00,4.000000,,2013-01-20 23:33:00,
2013-01-20 14:42:00,26.0,23.0,-100.00,ENE,60,0.0,0.0,87,0.00,,,0.00,4.000000,,2013-01-20 23:42:00,
2013-01-20 14:52:00,26.0,23.0,-100.00,ENE,60,0.0,0.0,87,0.00,,,0.00,4.000000,,2013-01-20 23:52:00,
2013-01-20 15:22:00,26.0,23.0,-100.00,NNE,18,0.0,0.0,89,0.00,,,0.00,4.000000,,2013-01-21 00:22:00,
2013-01-20 15:33:00,26.0,23.0,-100.00,NNE,18,0.0,0.0,89,0.00,,,0.00,4.000000,,2013-01-21 00:33:00,
2013-01-20 15:42:00,26.0,23.0,-100.00,NNE,18,0.0,0.0,89,0.00,,,0.00,4.000000,,2013-01-21 00:42:00,
2013-01-20 15:52:00,26.0,23.0,-100.00,NNE,18,0.0,0.0,89,0.00,,,0.00,4.000000,,2013-01-21 00:52:00,
2013-01-20 16:22:00,26.0,23.0,-100.00,NE,36,0.0,1.0,89,0.00,,,-99.99,4.000000,,2013-01-21 01:22:00,
2013-01-20 16:32:00,26.0,23.0,-100.00,NE,36,0.0,1.0,89,0.00,,,-99.99,4.000000,,2013-01-21 01:32:00,
2013-01-20 16:43:00,26.0,23.0,-100.00,NE,36,0.0,1.0,89,0.00,,,-99.99,4.000000,,2013-01-21 01:43:00,
2013-01-20 16:52:00,26.0,23.0,-100.00,NE,36,0.0,1.0,89,0.00,,,-99.99,4.000000,,2013-01-21 01:52:00,
2013-01-20 17:23:00,25.0,22.0,-100.00,NW,321,0.0,0.0,88,0.00,,,0.00,2.000000,,2013-01-21 02:23:00,
2013-01-20 17:33:00,25.0,22.0,-100.00,NW,321,0.0,0.0,88,0.00,,,0.00,2.000000,,2013-01-21 02:33:00,
2013-01-20 17:42:00,25.0,22.0,-100.00,NW,321,0.0,0.0,88,0.00,,,0.00,2.000000,,2013-01-21 02:42:00,
2013-01-20 17:52:00,25.0,22.0,-100.00,NW,321,0.0,0.0,88,0.00,,,0.00,2.000000,,2013-01-21 02:52:00,
2013-01-20 18:23:00,23.0,21.0,-100.00,ENE,66,0.0,0.0,92,0.00,,,0.00,0.000000,,2013-01-21 03:23:00,
2013-01-20 18:33:00,23.0,21.0,-100.00,ENE,66,0.0,0.0,92,0.00,,,0.00,0.000000,,2013-01-21 03:33:00,
2013-01-20 18:43:00,23.0,21.0,-100.00,ENE,66,0.0,0.0,92,0.00,,,0.00,0.000000,,2013-01-21 03:43:00,
2013-01-20 18:52:00,23.0,21.0,-100.00,ENE,66,0.0,0.0,92,0.00,,,0.00,0.000000,,2013-01-21 03:52:00,
2013-01-20 19:23:00,21.0,19.0,-100.00,East,93,0.0,0.0,92,0.00,,,0.00,0.000000,,2013-01-21 04:23:00,
2013-01-20 19:32:00,21.0,19.0,-100.00,East,93,0.0,0.0,92,0.00,,,0.00,0.000000,,2013-01-21 04:32:00,
2013-01-20 19:42:00,21.0,19.0,-100.00,East,93,0.0,0.0,92,0.00,,,0.00,0.000000,,2013-01-21 04:42:00,
2013-01-20 19:52:00,21.0,19.0,-100.00,East,93,0.0,0.0,92,0.00,,,0.00,0.000000,,2013-01-21 04:52:00,
2013-01-20 20:42:00,18.0,16.0,-100.00,ESE,109,0.0,0.0,90,0.00,,,0.00,0.000000,,2013-01-21 05:42:00,
2013-01-20 20:52:00,18.0,16.0,-100.00,ESE,109,0.0,0.0,90,0.00,,,0.00,0.000000,,2013-01-21 05:52:00,
2013-01-20 21:23:00,15.0,12.0,-100.00,SE,127,0.0,0.0,89,0.00,,,0.00,0.000000,,2013-01-21 06:23:00,
2013-01-20 22:22:00,15.0,12.0,-100.00,NNE,22,0.0,0.0,89,-99.99,,,-99.99,0.000000,,2013-01-21 07:22:00,
2013-01-20 23:22:00,15.0,12.0,-100.00,East,82,0.0,0.0,88,-99.99,,,-99.99,0.000000,,2013-01-21 08:22:00,